Change the Weather History Date:

Wednesday, May 22, 2013

  Actual Average Record
Temperature  
Mean Temperature 67 °F 62 °F  
Max Temperature 73 °F 73 °F 88 °F (2007)
Min Temperature 61 °F 52 °F 32 °F (1997)
Degree Days  
Heating Degree Days 0 5  
Month to date heating degree days 103 158  
Since 1 July heating degree days 6082 6152  
Cooling Degree Days 2 2  
Month to date cooling degree days 68 29  
Year to date cooling degree days 75 34  
Growing Degree Days 16 (Base 50)    
Moisture  
Dew Point 60 °F    
Average Humidity 81    
Maximum Humidity 96    
Minimum Humidity 56    
Precipitation  
Precipitation 0.32 in 0.15 in 0.38 in (1993)
Month to date precipitation 2.24 3.02  
Year to date precipitation 18.18 13.46  
Sea Level Pressure  
Sea Level Pressure 29.69 in    
Wind  
Wind Speed 8 mph (WSW)    
Max Wind Speed 23 mph    
Max Gust Speed 26 mph    
Visibility 9 miles    
Events Rain , Thunderstorm    
T = Trace of Precipitation, MM = Missing Value Source: NWS Daily Summary

Daily Weather History Graph

Daily Weather History Graph

Search for Another Location

Airport or City:

Trip Planner

Search our weather history database for the weather conditions in past years. The results will help you decide how hot, cold, wet, or windy it might be!

Date:

Astronomy

May. 22, 2013 Rise Set
Actual Time 5:26 AM CDT 8:12 PM CDT
Civil Twilight 4:54 AM CDT 8:44 PM CDT
Nautical Twilight 4:13 AM CDT 9:25 PM CDT
Astronomical Twilight 3:26 AM CDT 10:12 PM CDT
Moon 5:32 PM CDT (5/22) 3:32 AM CDT (5/22)
Length of Visible Light 15h 50m
Length of Day
14h 45m
Waxing Gibbous, 91% of the Moon is Illuminated
May 22
Waxing Gibbous
May 24
Full
May 31
Last Quarter
Jun 8
New
Jun 16
First Quarter

Hourly Weather History & Observations

Time (CDT) Temp. Dew Point Humidity Pressure Visibility Wind Dir Wind Speed Gust Speed Precip Events Conditions
12:15 AM 70.9 °F 66.2 °F 85% 29.69 in 10.0 mi SSW 9.2 mph - N/A   Overcast
12:35 AM 68.5 °F 64.6 °F 87% 29.70 in 10.0 mi West 4.6 mph - N/A   Overcast
12:55 AM 68.0 °F 64.8 °F 89% 29.70 in 10.0 mi West 3.5 mph - N/A   Overcast
1:15 AM 68.2 °F 64.8 °F 89% 29.69 in 10.0 mi Calm Calm - N/A   Overcast
1:35 AM 67.3 °F 64.4 °F 90% 29.67 in 10.0 mi NE 3.5 mph - N/A   Mostly Cloudy
1:55 AM 67.1 °F 63.7 °F 89% 29.67 in 10.0 mi NNE 4.6 mph - N/A   Mostly Cloudy
2:15 AM 67.1 °F 63.5 °F 88% 29.67 in 10.0 mi Calm Calm - N/A   Overcast
2:35 AM 68.5 °F 64.9 °F 88% 29.67 in 10.0 mi South 4.6 mph - N/A Rain Rain
2:55 AM 68.9 °F 65.3 °F 88% 29.67 in 10.0 mi SSW 6.9 mph - N/A   Light Drizzle
3:15 AM 68.0 °F 66.0 °F 93% 29.66 in 10.0 mi South 8.1 mph - N/A   Overcast
3:35 AM 67.6 °F 65.3 °F 92% 29.66 in 10.0 mi South 6.9 mph - N/A   Light Drizzle
3:55 AM 67.3 °F 65.1 °F 93% 29.66 in 10.0 mi South 8.1 mph - N/A   Light Drizzle
4:15 AM 67.8 °F 65.3 °F 92% 29.66 in 10.0 mi SSW 8.1 mph - N/A   Overcast
4:35 AM 68.0 °F 64.8 °F 89% 29.66 in 10.0 mi SW 11.5 mph 18.4 mph N/A   Overcast
4:55 AM 67.5 °F 64.4 °F 90% 29.66 in 10.0 mi WSW 6.9 mph - N/A Rain Light Rain
5:15 AM 67.1 °F 64.4 °F 91% 29.65 in 10.0 mi WSW 9.2 mph - N/A   Overcast
5:35 AM 66.9 °F 64.2 °F 91% 29.65 in 10.0 mi WSW 5.8 mph - N/A   Overcast
5:55 AM 66.6 °F 64.2 °F 92% 29.66 in 10.0 mi SW 6.9 mph - N/A   Overcast
6:15 AM 66.4 °F 64.0 °F 92% 29.66 in 7.0 mi WSW 5.8 mph - N/A Rain Rain
6:35 AM 65.3 °F 63.0 °F 92% 29.67 in 5.0 mi WSW 11.5 mph - 0.01 in Rain Rain
6:55 AM 64.4 °F 62.6 °F 94% 29.67 in 7.0 mi SW 4.6 mph - 0.03 in Rain Light Rain
7:15 AM 64.6 °F 63.3 °F 96% 29.66 in 5.0 mi SSW 5.8 mph - 0.01 in Rain Light Rain
7:35 AM 64.2 °F 63.0 °F 96% 29.65 in 7.0 mi South 5.8 mph - 0.01 in Rain Light Rain
7:55 AM 64.4 °F 63.1 °F 96% 29.65 in 7.0 mi SSE 3.5 mph - 0.01 in Rain Light Rain
8:15 AM 64.6 °F 63.3 °F 96% 29.65 in 7.0 mi Calm Calm - N/A Rain Light Rain
8:35 AM 65.3 °F 63.5 °F 94% 29.64 in 10.0 mi Calm Calm - N/A   Overcast
8:55 AM 65.7 °F 64.0 °F 94% 29.65 in 7.0 mi SSW 4.6 mph - N/A   Mostly Cloudy
9:15 AM 67.5 °F 64.4 °F 90% 29.66 in 10.0 mi SW 8.1 mph - N/A   Mostly Cloudy
9:35 AM 67.8 °F 63.9 °F 87% 29.67 in 10.0 mi SW 9.2 mph - N/A   Overcast
9:55 AM 68.4 °F 63.3 °F 84% 29.66 in 10.0 mi SW 10.4 mph - N/A   Mostly Cloudy
10:15 AM 69.6 °F 63.1 °F 80% 29.66 in 10.0 mi SSW 8.1 mph - N/A   Mostly Cloudy
10:35 AM 69.1 °F 62.4 °F 79% 29.66 in 10.0 mi SSW 11.5 mph - N/A Thunderstorm Mostly Cloudy
10:55 AM 70.2 °F 62.4 °F 76% 29.66 in 10.0 mi SW 9.2 mph 16.1 mph N/A   Overcast
11:15 AM 68.2 °F 63.0 °F 83% 29.66 in 10.0 mi SW 16.1 mph - 0.02 in Rain Light Rain
11:35 AM 66.6 °F 63.1 °F 89% 29.66 in 4.0 mi SW 12.7 mph 17.3 mph 0.09 in Rain Heavy Rain
11:55 AM 65.7 °F 63.3 °F 92% 29.68 in 4.0 mi SSW 21.9 mph - 0.13 in Rain Rain
12:15 PM 63.9 °F 61.5 °F 92% 29.69 in 4.0 mi West 23.0 mph 26.5 mph 0.06 in Rain Heavy Rain
12:35 PM 63.5 °F 61.7 °F 94% 29.68 in 10.0 mi WNW 11.5 mph - 0.08 in Rain Light Rain
12:55 PM 63.7 °F 62.1 °F 94% 29.68 in 10.0 mi West 11.5 mph 16.1 mph 0.08 in Rain Light Rain
1:15 PM 64.9 °F 62.6 °F 92% 29.69 in 10.0 mi West 9.2 mph 17.3 mph N/A   Light Drizzle
1:35 PM 66.2 °F 62.6 °F 88% 29.69 in 10.0 mi West 13.8 mph - N/A   Overcast
1:55 PM 67.5 °F 61.9 °F 82% 29.68 in 10.0 mi WNW 10.4 mph - N/A   Overcast
2:15 PM 69.8 °F 59.5 °F 70% 29.68 in 10.0 mi West 13.8 mph - N/A   Mostly Cloudy
2:35 PM 70.0 °F 58.8 °F 68% 29.69 in 10.0 mi West 11.5 mph - N/A   Scattered Clouds
2:55 PM 70.3 °F 60.4 °F 71% 29.70 in 10.0 mi West 13.8 mph 17.3 mph N/A   Scattered Clouds
3:15 PM 71.1 °F 57.7 °F 63% 29.69 in 10.0 mi West 12.7 mph - N/A   Overcast
3:35 PM 71.1 °F 56.7 °F 60% 29.69 in 10.0 mi WSW 15.0 mph - N/A   Scattered Clouds
3:55 PM 71.1 °F 55.9 °F 59% 29.69 in 10.0 mi WSW 8.1 mph - N/A   Mostly Cloudy
4:15 PM 70.9 °F 57.2 °F 62% 29.69 in 10.0 mi West 8.1 mph - N/A   Mostly Cloudy
4:35 PM 70.0 °F 56.5 °F 62% 29.68 in 10.0 mi WSW 11.5 mph 17.3 mph N/A   Overcast
4:55 PM 69.8 °F 56.5 °F 63% 29.68 in 10.0 mi WSW 12.7 mph - N/A   Overcast
5:15 PM 70.5 °F 54.0 °F 56% 29.68 in 10.0 mi WSW 18.4 mph 23.0 mph N/A   Overcast
5:35 PM 70.7 °F 55.2 °F 58% 29.69 in 10.0 mi West 15.0 mph - N/A   Overcast
5:55 PM 70.0 °F 55.2 °F 59% 29.69 in 10.0 mi West 15.0 mph 18.4 mph N/A   Overcast
6:15 PM 69.1 °F 55.4 °F 62% 29.69 in 10.0 mi West 16.1 mph 20.7 mph N/A   Overcast
6:35 PM 68.2 °F 56.1 °F 65% 29.69 in 10.0 mi West 15.0 mph - N/A   Overcast
6:55 PM 67.5 °F 55.4 °F 65% 29.70 in 10.0 mi West 15.0 mph - N/A   Overcast
7:15 PM 66.4 °F 55.9 °F 69% 29.71 in 10.0 mi West 12.7 mph - N/A   Overcast
7:35 PM 65.8 °F 56.1 °F 71% 29.71 in 10.0 mi West 11.5 mph - N/A   Overcast
7:55 PM 65.5 °F 56.1 °F 72% 29.71 in 10.0 mi West 10.4 mph 17.3 mph N/A   Overcast
8:15 PM 64.9 °F 56.1 °F 73% 29.72 in 10.0 mi West 11.5 mph 19.6 mph N/A   Overcast
8:35 PM 64.2 °F 55.0 °F 72% 29.73 in 10.0 mi West 11.5 mph 16.1 mph N/A   Overcast
8:55 PM 63.5 °F 54.7 °F 73% 29.74 in 10.0 mi West 9.2 mph - N/A   Overcast
9:15 PM 63.0 °F 54.5 °F 74% 29.75 in 10.0 mi West 12.7 mph - N/A   Overcast
9:35 PM 62.2 °F 54.7 °F 76% 29.75 in 10.0 mi West 9.2 mph - N/A   Overcast
9:55 PM 61.9 °F 54.7 °F 77% 29.76 in 10.0 mi West 11.5 mph - N/A   Overcast
10:15 PM 61.2 °F 54.9 °F 80% 29.76 in 10.0 mi West 9.2 mph - N/A   Mostly Cloudy
10:35 PM 61.5 °F 54.9 °F 79% 29.76 in 10.0 mi West 10.4 mph - N/A   Mostly Cloudy
10:55 PM 61.7 °F 54.9 °F 78% 29.76 in 10.0 mi West 11.5 mph - N/A   Overcast
11:15 PM 61.3 °F 55.0 °F 80% 29.76 in 10.0 mi West 10.4 mph - N/A   Overcast
11:35 PM 61.2 °F 55.2 °F 81% 29.77 in 10.0 mi West 11.5 mph - N/A   Overcast
11:55 PM 61.0 °F 55.6 °F 82% 29.77 in 10.0 mi West 12.7 mph - N/A   Overcast